[[{"header":{"parameterUnit":"m.s-1","parameterCategory":2,"la1":30.2991,"la2":30.254,"lo1":-89.0895,"lo2":-89.0444,"dy":0.0017,"dx":0.0017,"nx":28,"ny":28,"refTime":"2025-08-01T21:00:00:Z","depth":"0","parameterNumber":2,"parameterNumberName":"U-component_of_CURRENTS"},"data":[0,0,0,0,0,0,0,0,0,0,0,0,0,0,0,0,0,0,0,0,0,0,0,0,0,0,0,0,0,0,0,0,0,0,0,0,0,0,0,0,0,0,0,0,0,0,0,0,0,0,0,0,0,0,0,0,0,0,-0.0341,-0.034,0,-0.0289,-0.0288,-0.0288,-0.0271,-0.0271,-0.0272,-0.0272,-0.0266,-0.0266,-0.0265,0,0,0,0,0,0,0,0,0,0,0,0,0,-0.0381,-0.038,-0.0341,-0.034,-0.0339,-0.0289,-0.0288,-0.0287,-0.0271,-0.0271,-0.0272,-0.0272,-0.0266,-0.0266,-0.0265,0,0,0,0,0,0,0,0,0,0,0,0,0,-0.0349,-0.038,-0.0341,-0.0326,-0.0324,-0.0289,-0.0288,-0.0287,-0.0271,-0.0271,-0.0272,-0.0272,-0.0266,-0.0266,-0.0265,-0.0251,0,0,-0.0263,-0.0263,0,0,0,0,0,0,0,0,-0.0351,-0.0347,-0.0329,-0.0327,-0.0325,-0.0288,-0.03,-0.0278,-0.0271,-0.029,-0.0272,-0.0273,-0.0278,-0.0276,-0.0263,-0.0251,-0.025,-0.0263,-0.0262,-0.0262,-0.0262,0,0,0,0,0,0,0,-0.0353,-0.0349,-0.0319,-0.0328,-0.0326,-0.0307,-0.0303,-0.0295,-0.0282,-0.0288,-0.0287,-0.0283,-0.0277,-0.0264,-0.0263,-0.025,-0.0263,-0.0262,-0.0262,-0.0262,-0.0177,-0.0175,0,0,0,0,0,0,-0.0363,-0.0351,-0.0321,-0.0318,-0.034,-0.0306,-0.0302,-0.0298,-0.0281,-0.0279,-0.0283,-0.0283,-0.0265,-0.0264,-0.0263,-0.011,-0.0262,-0.0261,-0.0261,-0.0179,-0.0177,-0.0175,0,0,0,0,0,0,-0.0364,-0.0361,-0.0323,-0.0334,-0.0328,-0.0305,-0.0301,-0.0297,-0.029,-0.0276,-0.0275,-0.0281,-0.0265,-0.0264,-0.0249,-0.0115,-0.0261,-0.0261,-0.0181,-0.0178,-0.0176,0.0109,0,0,0,0,0,0,-0.0365,-0.0361,-0.0369,-0.0335,-0.0328,-0.0292,-0.0301,-0.0296,-0.0287,-0.0286,-0.0274,-0.0273,-0.0266,-0.025,-0.0248,-0.0117,-0.026,-0.0183,-0.018,-0.0176,0.0098,0.0122,0.0142,0,0,0,0,0,-0.0367,-0.0366,-0.0369,-0.0366,-0.0337,-0.0291,-0.0285,-0.027,-0.0286,-0.0269,-0.0266,-0.0274,-0.0226,-0.0248,-0.0247,-0.0111,-0.0185,-0.0181,-0.0177,0.0088,0.0117,0.0141,0,0,0,0,0,0,-0.0401,-0.0363,-0.0366,-0.036,-0.0327,-0.0289,-0.0274,-0.0274,-0.0258,-0.0263,-0.0263,-0.026,-0.0191,-0.0227,-0.0252,-0.0089,-0.0202,-0.0197,-0.0001,0.0026,0.0047,0.0198,-0.0259,0,0,0,0,0,-0.0411,-0.0386,-0.0358,-0.0349,-0.0334,-0.031,-0.0296,-0.0282,-0.0261,-0.0255,-0.0241,-0.0226,-0.0171,-0.014,-0.013,-0.0049,0.0021,0.0033,0.0055,0.0075,0.0191,0.0385,0.044,-0.0161,-0.0161,-0.0161,0,0,-0.0414,-0.0397,-0.0381,-0.0352,-0.0327,-0.0227,-0.0301,-0.0269,-0.0156,-0.0258,-0.0133,-0.0165,-0.0148,-0.0036,-0.0006,-0.0043,0.0269,0.008,0.0099,0.0206,0.0396,0.0456,0.051,-0.0158,-0.0159,-0.0159,0,0,-0.0348,-0.0399,-0.0318,-0.028,-0.0237,-0.0207,-0.0197,-0.0156,-0.0116,-0.0031,-0.0048,0.0017,0.0042,0.015,0.0195,0.0336,0.0359,0.0287,0.0569,0.0754,0.081,0.0859,0.0996,0.1056,0.0327,0.0328,0.0328,0,-0.0351,-0.0236,-0.0292,-0.0187,-0.0115,-0.018,-0.0036,0.0003,0.005,0.0134,0.0037,0.0205,0.0188,0.0443,0.05,0.0415,0.0483,0.048,0.08,0.085,0.0896,0.1025,0.1087,0.0342,0.034,0.0339,0.0337,0,-0.0165,-0.0088,-0.0045,0.0095,0.014,0.0231,0.0286,0.0342,0.0352,0.0421,0.0593,0.058,0.0706,0.0698,0.0662,0.0982,0.0908,0.0792,0.0765,0.0977,0.1093,0.1154,0.0362,0.0357,0.0353,0.0349,0,0,-0.0052,0.0068,0.0106,0.0211,0.0305,0.0373,0.0544,0.0722,0.086,0.0905,0.1132,0.1248,0.1212,0.1262,0.1211,0.139,0.1736,0.1257,0.126,0.1456,0.2139,0.2099,0.2158,0.1673,0.1685,0.1695,0.2082,0,0.0155,0.0389,0.041,0.0663,0.0801,0.0799,0.0964,0.1088,0.1154,0.1319,0.1399,0.1532,0.1434,0.1468,0.1662,0.1668,0.1913,0.1643,0.1854,0.1862,0.1855,0.2236,0.2204,0.255,0.2141,0.215,0.2158,0,0.044,0.0541,0.081,0.0972,0.103,0.1155,0.1386,0.1511,0.1703,0.1749,0.1928,0.1912,0.2186,0.2008,0.2365,0.2183,0.2259,0.2281,0.2292,0.2231,0.1941,0.2271,0.2674,0.2602,0.225,0.2243,0.2236,0,0.0666,0.0865,0.1079,0.1144,0.1297,0.1419,0.1497,0.1672,0.1773,0.2014,0.208,0.2366,0.2437,0.265,0.2671,0.2552,0.3013,0.2822,0.2911,0.2901,0.292,0.2894,0.3355,0.3217,0.3217,0.3216,0.3214,0,0.0968,0.1157,0.1179,0.1314,0.1515,0.1569,0.1791,0.1895,0.2043,0.2173,0.2291,0.2418,0.2601,0.2797,0.2869,0.31,0.3196,0.3127,0.3081,0.3001,0.2979,0.2936,0.283,0.323,0.3227,0.3224,0.3221,0,0.1273,0.1307,0.1516,0.162,0.1641,0.1783,0.1864,0.1982,0.2116,0.2281,0.2352,0.2537,0.2791,0.2972,0.327,0.3313,0.3482,0.3588,0.3459,0.3397,0.3378,0.3283,0.3531,0.35,0.3827,0.383,0.3832,0,0.1493,0.1614,0.1679,0.1703,0.1753,0.1883,0.1929,0.2032,0.2103,0.2314,0.2381,0.2667,0.2816,0.3265,0.3483,0.3781,0.361,0.3885,0.3706,0.3559,0.3419,0.3129,0.3062,0.3818,0.382,0.3822,0.3823,0,0.1815,0.1785,0.1864,0.1866,0.1901,0.1956,0.2013,0.2069,0.2168,0.2289,0.2428,0.2569,0.2989,0.3264,0.3653,0.3815,0.3733,0.3922,0.3865,0.3629,0.3264,0.3141,0.3309,0.3837,0.3835,0.3834,0.3834,0.3833,0.1967,0.2001,0.1964,0.1982,0.1989,0.1975,0.2001,0.2032,0.2122,0.2231,0.2378,0.2548,0.2981,0.352,0.37,0.3998,0.3836,0.3964,0.3917,0.3676,0.353,0.3721,0.4095,0.4095,0.4096,0.4096,0.4096,0,0.205,0.2013,0.2041,0.1999,0.1973,0.1973,0.199,0.1979,0.2014,0.2162,0.227,0.2618,0.3028,0.3425,0.3908,0.3961,0.3823,0.3946,0.359,0.3571,0.3898,0.3777,0.3984,0.3984,0.3984,0.3984,0.3984,0.3984,0.2068,0.2043,0.201,0.1944,0.1909,0.1848,0.1833,0.184,0.1919,0.2034,0.217,0.2304,0.2762,0.3417,0.3782,0.3831,0.3648,0.3548,0.3509,0.376,0.3755,0.375,0.3621,0.3792,0.3792,0.3079,0.3075,0.3071]},{"header":{"parameterUnit":"m.s-1","parameterCategory":2,"la1":30.2991,"la2":30.254,"lo1":-89.0895,"lo2":-89.0444,"dy":0.0017,"dx":0.0017,"nx":28,"ny":28,"refTime":"2025-08-01T21:00:00:Z","depth":"0","parameterNumber":3,"parameterNumberName":"V-component_of_CURRENTS"},"data":[0,0,0,0,0,0,0,0,0,0,0,0,0,0,0,0,0,0,0,0,0,0,0,0,0,0,0,0,0,0,0,0,0,0,0,0,0,0,0,0,0,0,0,0,0,0,0,0,0,0,0,0,0,0,0,0,0,0,-0.0084,-0.0084,0,-0.0109,-0.0109,-0.0109,-0.0167,-0.0169,-0.017,-0.0171,-0.0239,-0.024,-0.024,0,0,0,0,0,0,0,0,0,0,0,0,0,-0.0084,-0.0084,-0.0084,-0.0084,-0.0084,-0.0109,-0.0109,-0.0109,-0.0167,-0.0169,-0.017,-0.0171,-0.0239,-0.024,-0.0241,0,0,0,0,0,0,0,0,0,0,0,0,0,-0.0095,-0.0084,-0.0084,-0.0115,-0.0118,-0.0108,-0.0109,-0.011,-0.0167,-0.0169,-0.017,-0.0172,-0.0238,-0.0239,-0.0241,-0.0215,0,0,-0.0244,-0.0245,0,0,0,0,0,0,0,0,-0.0094,-0.0095,-0.011,-0.0113,-0.0116,-0.0136,-0.0134,-0.0147,-0.0167,-0.015,-0.0171,-0.0173,-0.0206,-0.021,-0.0212,-0.0218,-0.0221,-0.0244,-0.0245,-0.0246,-0.0246,0,0,0,0,0,0,0,-0.0094,-0.0094,-0.0095,-0.011,-0.0114,-0.0127,-0.0131,-0.0137,-0.017,-0.0151,-0.0155,-0.0156,-0.0209,-0.0211,-0.0214,-0.0222,-0.0244,-0.0245,-0.0246,-0.0247,-0.0199,-0.0197,0,0,0,0,0,0,-0.0086,-0.0093,-0.0094,-0.0095,-0.0108,-0.0126,-0.013,-0.0129,-0.0169,-0.0176,-0.0154,-0.0158,-0.0208,-0.0213,-0.0217,-0.0142,-0.0246,-0.0247,-0.0247,-0.0201,-0.0199,-0.0197,0,0,0,0,0,0,-0.0086,-0.0086,-0.0093,-0.0094,-0.0096,-0.0124,-0.0122,-0.0128,-0.0134,-0.0171,-0.0179,-0.0155,-0.021,-0.0215,-0.0212,-0.0147,-0.0247,-0.0248,-0.0204,-0.0201,-0.0198,-0.0022,0,0,0,0,0,0,-0.0086,-0.0086,-0.008,-0.0094,-0.0096,-0.0063,-0.0121,-0.0127,-0.0131,-0.0137,-0.0173,-0.0182,-0.0211,-0.021,-0.0213,-0.0151,-0.0249,-0.0206,-0.0202,-0.0199,-0.0031,-0.0014,0.0001,0,0,0,0,0,-0.0086,-0.0057,-0.008,-0.008,-0.0088,-0.006,-0.0061,-0.0089,-0.0129,-0.0106,-0.0143,-0.0181,-0.0189,-0.0209,-0.0213,-0.015,-0.0208,-0.0203,-0.0199,-0.0038,-0.0017,0.0,0,0,0,0,0,0,-0.0053,-0.0061,-0.0086,-0.0063,-0.0056,-0.0069,-0.005,-0.0081,-0.0092,-0.01,-0.0157,-0.0165,-0.0134,-0.0174,-0.0195,-0.0129,-0.0204,-0.02,-0.0079,-0.006,-0.0045,0.0018,-0.025,0,0,0,0,0,-0.0044,-0.0026,-0.0036,-0.0015,-0.0008,-0.0033,-0.0029,-0.0042,-0.0055,-0.0063,-0.0086,-0.0113,-0.0116,-0.0117,-0.0125,-0.009,-0.0119,-0.0054,-0.0038,-0.0024,0.0022,-0.0001,0.0017,-0.0182,-0.0182,-0.0182,0,0,-0.0027,-0.0027,-0.0019,-0.0007,-0.0007,0.0043,-0.0033,-0.0006,0.0041,-0.0066,-0.0012,-0.0056,-0.0097,-0.0051,-0.0041,-0.0077,0.002,-0.0019,-0.0006,0.0034,0.0005,0.0025,0.0042,-0.0179,-0.018,-0.018,0,0,0.0046,0.0021,0.007,0.0087,0.0103,0.01,0.0111,0.0112,0.0118,0.0156,0.0092,0.0088,0.0084,0.0077,0.0067,0.0162,0.0101,0.0151,0.0289,0.0265,0.0282,0.0296,0.0301,0.0314,0.0161,0.0161,0.0161,0,0.0071,0.0129,0.0092,0.0153,0.0189,0.0134,0.0215,0.0221,0.0225,0.0255,0.0201,0.0209,0.0158,0.0218,0.0249,0.0205,0.0183,0.0223,0.0288,0.0302,0.0313,0.0314,0.0327,0.017,0.0169,0.0168,0.0167,0,0.0188,0.0235,0.0274,0.0333,0.0362,0.0427,0.0432,0.0467,0.0454,0.0458,0.0511,0.0443,0.0448,0.0427,0.037,0.044,0.0396,0.0309,0.0247,0.0345,0.0338,0.0348,0.0183,0.018,0.0177,0.0175,0,0,0.0272,0.0344,0.0361,0.0422,0.047,0.0515,0.0601,0.0678,0.074,0.0732,0.0815,0.0793,0.0739,0.0724,0.0643,0.0624,0.0673,0.0519,0.0513,0.0539,0.0649,0.0657,0.0667,0.0588,0.0591,0.0592,0.0618,0,0.0392,0.0533,0.0541,0.0692,0.0776,0.0769,0.0857,0.0906,0.0922,0.0983,0.0933,0.0961,0.0856,0.0846,0.0824,0.0699,0.0705,0.0677,0.054,0.0538,0.0543,0.0681,0.0775,0.081,0.0627,0.0629,0.063,0,0.0532,0.0609,0.0767,0.0889,0.0925,0.0999,0.1125,0.1192,0.1246,0.1255,0.1274,0.1211,0.121,0.1073,0.0987,0.097,0.0856,0.0754,0.0749,0.0712,0.0565,0.0677,0.0833,0.064,0.0644,0.0643,0.0642,0,0.064,0.0783,0.0914,0.0956,0.1071,0.1149,0.121,0.1284,0.1345,0.1415,0.1442,0.1435,0.1398,0.1289,0.1095,0.1039,0.0979,0.0855,0.0778,0.0776,0.0812,0.081,0.0784,0.0826,0.0826,0.0825,0.0825,0,0.0791,0.0903,0.097,0.105,0.1203,0.125,0.1398,0.1454,0.1526,0.1597,0.1573,0.1606,0.144,0.1369,0.1197,0.1052,0.1062,0.0868,0.0804,0.0876,0.088,0.0672,0.0534,0.0826,0.0826,0.0826,0.0826,0,0.0904,0.0952,0.1102,0.1222,0.1259,0.1365,0.1477,0.1565,0.163,0.1716,0.1736,0.1734,0.167,0.152,0.1333,0.1174,0.0931,0.0964,0.1086,0.1038,0.078,0.0649,0.0526,0.0424,0.0912,0.0913,0.0913,0,0.0981,0.1065,0.1191,0.1247,0.1304,0.1435,0.1512,0.1608,0.1677,0.1779,0.1815,0.1817,0.1825,0.163,0.1414,0.1221,0.0971,0.1114,0.1026,0.0849,0.0653,0.05,0.0411,0.1144,0.1146,0.1148,0.115,0,0.1104,0.113,0.1213,0.1314,0.1404,0.1515,0.1624,0.1691,0.1789,0.1869,0.1948,0.1981,0.1883,0.1782,0.1553,0.1377,0.0993,0.1146,0.093,0.0848,0.0714,0.0558,0.1041,0.1168,0.1166,0.1165,0.1164,0.1163,0.1146,0.12,0.126,0.1363,0.1459,0.156,0.1646,0.1743,0.1861,0.1977,0.2026,0.2127,0.208,0.1826,0.1531,0.1163,0.1067,0.1023,0.0887,0.0754,0.0645,0.1192,0.1246,0.1244,0.1243,0.1242,0.1241,0,0.1157,0.12,0.1295,0.14,0.1492,0.1547,0.1685,0.1761,0.1878,0.2041,0.214,0.2318,0.21,0.1827,0.1435,0.1022,0.0775,0.0772,0.0586,0.0508,0.1001,0.1001,0.1043,0.1044,0.1044,0.1044,0.1044,0.1044,0.1148,0.1204,0.1251,0.1382,0.1462,0.1576,0.1651,0.1772,0.1916,0.2155,0.2353,0.2518,0.2542,0.1626,0.0949,0.0728,0.0321,0.0262,0.0009,0.0357,0.0369,0.038,0.0349,0.0254,0.0253,-0.041,-0.0416,-0.0421]}],[{"header":{"parameterUnit":"m.s-1","parameterCategory":2,"la1":30.2991,"la2":30.254,"lo1":-89.0895,"lo2":-89.0444,"dy":0.0017,"dx":0.0017,"nx":28,"ny":28,"refTime":"2025-08-01T21:00:00:Z","depth":"2","parameterNumber":2,"parameterNumberName":"U-component_of_CURRENTS"},"data":[0,0,0,0,0,0,0,0,0,0,0,0,0,0,0,0,0,0,0,0,0,0,0,0,0,0,0,0,0,0,0,0,0,0,0,0,0,0,0,0,0,0,0,0,0,0,0,0,0,0,0,0,0,0,0,0,0,0,0.0218,0.0219,0,0.0265,0.0266,0.0266,0.0256,0.0255,0.0254,0.0254,0.0344,0.0347,0.035,0,0,0,0,0,0,0,0,0,0,0,0,0,0.016,0.0161,0.0218,0.0219,0.0219,0.0265,0.0266,0.0266,0.0256,0.0255,0.0254,0.0253,0.0343,0.0346,0.035,0,0,0,0,0,0,0,0,0,0,0,0,0,0.0193,0.0161,0.0218,0.022,0.0221,0.0265,0.0266,0.0266,0.0256,0.0255,0.0254,0.0253,0.0342,0.0346,0.0351,0.0404,0,0,0.0365,0.0367,0,0,0,0,0,0,0,0,0.0191,0.0195,0.0219,0.022,0.0221,0.0254,0.0278,0.0315,0.0257,0.0242,0.0254,0.0252,0.0319,0.0326,0.0336,0.0409,0.0412,0.0366,0.0369,0.0371,0.0372,0,0,0,0,0,0,0,0.0189,0.0193,0.0236,0.022,0.0221,0.0233,0.0236,0.0285,0.0287,0.0243,0.0243,0.025,0.032,0.0331,0.0338,0.0414,0.0366,0.037,0.0373,0.0375,0.0663,0.0667,0,0,0,0,0,0,0.0184,0.0191,0.0235,0.0237,0.0204,0.0235,0.0238,0.0244,0.0286,0.0291,0.0251,0.0249,0.0323,0.0332,0.0341,0.0491,0.0371,0.0375,0.0378,0.0658,0.0664,0.0669,0,0,0,0,0,0,0.0182,0.0187,0.0233,0.0216,0.0222,0.0237,0.0244,0.0246,0.0269,0.0291,0.0296,0.0273,0.0323,0.0334,0.0429,0.0491,0.0377,0.0381,0.0652,0.066,0.0667,0.0738,0,0,0,0,0,0,0.0181,0.0187,0.0191,0.0216,0.0223,0.0274,0.0245,0.0248,0.0275,0.0273,0.0313,0.0318,0.0323,0.0422,0.0433,0.0496,0.0385,0.0646,0.0656,0.0664,0.073,0.0747,0.0762,0,0,0,0,0,0.0178,0.0192,0.019,0.0196,0.0228,0.0275,0.0282,0.0286,0.0277,0.03,0.0347,0.0318,0.0488,0.043,0.0442,0.0507,0.0642,0.0653,0.0664,0.0722,0.0744,0.0761,0,0,0,0,0,0,0.0171,0.0193,0.0192,0.0211,0.0247,0.0274,0.0294,0.0302,0.0354,0.0361,0.0373,0.0386,0.0497,0.0506,0.0441,0.0625,0.0563,0.0577,0.0604,0.0624,0.064,0.0602,0.0389,0,0,0,0,0,0.0171,0.0185,0.0216,0.0235,0.0253,0.0278,0.0298,0.0312,0.0358,0.0377,0.0418,0.0478,0.0552,0.0587,0.0651,0.0743,0.0725,0.0801,0.0817,0.083,0.0814,0.0868,0.0885,0.0705,0.0705,0.0704,0,0,0.0172,0.0188,0.0194,0.0234,0.0259,0.0303,0.0288,0.0335,0.0382,0.0384,0.0478,0.0537,0.0594,0.0705,0.0755,0.0716,0.0876,0.0844,0.0854,0.083,0.0881,0.0897,0.0912,0.0712,0.0711,0.071,0,0,0.0193,0.02,0.0224,0.0259,0.0307,0.0333,0.0352,0.041,0.0443,0.0543,0.0571,0.0664,0.077,0.0824,0.0861,0.1008,0.0964,0.1048,0.1086,0.114,0.1153,0.1165,0.1157,0.1167,0.1048,0.1048,0.1048,0,0.0195,0.0227,0.0243,0.0284,0.0318,0.035,0.04,0.0447,0.0536,0.0582,0.0586,0.0774,0.0821,0.0945,0.1004,0.1037,0.1041,0.0997,0.1154,0.1165,0.1175,0.1164,0.1174,0.1053,0.1053,0.1052,0.1052,0,0.024,0.027,0.0294,0.0351,0.0393,0.0447,0.0508,0.0574,0.0625,0.0674,0.0816,0.0896,0.0996,0.105,0.1069,0.1192,0.1162,0.1166,0.1084,0.1196,0.1179,0.1188,0.106,0.1058,0.1057,0.1056,0,0,0.0244,0.0309,0.0321,0.0354,0.0435,0.0477,0.0569,0.0661,0.0719,0.0826,0.091,0.1064,0.1099,0.1146,0.1198,0.125,0.1334,0.1243,0.1244,0.1196,0.1416,0.1313,0.1311,0.1369,0.1371,0.1373,0.1369,0,0.0281,0.0351,0.0384,0.0468,0.0513,0.0572,0.0649,0.0737,0.0815,0.0909,0.1002,0.1107,0.1138,0.1196,0.1262,0.1319,0.1363,0.1331,0.1347,0.1346,0.121,0.1322,0.1271,0.1258,0.1378,0.1379,0.138,0,0.0324,0.0363,0.0438,0.0522,0.0549,0.0607,0.0724,0.08,0.0923,0.0983,0.109,0.1151,0.1265,0.1268,0.1387,0.1368,0.1401,0.1427,0.1428,0.1304,0.1261,0.1173,0.1268,0.1394,0.1393,0.1392,0.1391,0,0.032,0.0409,0.0465,0.0495,0.0593,0.0648,0.0714,0.083,0.0893,0.1027,0.1074,0.1208,0.1271,0.1349,0.1401,0.1412,0.1488,0.1505,0.1434,0.1424,0.1366,0.1347,0.1585,0.1585,0.1585,0.1585,0.1585,0,0.0352,0.0398,0.0466,0.0497,0.0575,0.0649,0.0743,0.0824,0.0929,0.1001,0.1108,0.1173,0.13,0.1355,0.1406,0.1425,0.1492,0.1443,0.1432,0.1391,0.1375,0.148,0.1468,0.1585,0.1585,0.1585,0.1585,0,0.0347,0.039,0.0449,0.0539,0.0572,0.063,0.0738,0.08,0.0899,0.0989,0.1029,0.1156,0.123,0.13,0.1405,0.1407,0.1445,0.1433,0.1336,0.1314,0.1341,0.1334,0.1369,0.1365,0.1363,0.136,0.1358,0,0.0349,0.0376,0.0456,0.0487,0.0531,0.0616,0.0672,0.0781,0.0835,0.0971,0.1004,0.1101,0.1169,0.1239,0.1274,0.1307,0.1367,0.1251,0.1271,0.1341,0.1328,0.1324,0.1321,0.1227,0.1224,0.1222,0.122,0,0.0346,0.0368,0.0411,0.0469,0.0525,0.0585,0.067,0.0699,0.0821,0.0887,0.0981,0.1045,0.1114,0.1148,0.1156,0.1166,0.1241,0.1199,0.134,0.1271,0.1202,0.119,0.1193,0.1199,0.1201,0.1202,0.1203,0.1204,0.0332,0.0353,0.0402,0.0461,0.0513,0.0561,0.0597,0.067,0.0741,0.0845,0.0914,0.0992,0.1041,0.1043,0.1029,0.1018,0.1093,0.109,0.1101,0.1113,0.1079,0.1008,0.0958,0.0959,0.096,0.096,0.0961,0,0.032,0.0351,0.0394,0.0457,0.0496,0.054,0.0598,0.0627,0.0687,0.079,0.0871,0.0846,0.0886,0.093,0.0904,0.0891,0.091,0.0854,0.0918,0.0939,0.0958,0.0919,0.0754,0.0753,0.0753,0.0752,0,0,0.0315,0.035,0.0375,0.0432,0.0474,0.051,0.0531,0.0578,0.0643,0.0699,0.0754,0.0858,0.0915,0.0831,0.0824,0.0805,0.0859,0.0763,0.0933,0.1031,0.1049,0.11,0.1062,0,0,0,0,0]},{"header":{"parameterUnit":"m.s-1","parameterCategory":2,"la1":30.2991,"la2":30.254,"lo1":-89.0895,"lo2":-89.0444,"dy":0.0017,"dx":0.0017,"nx":28,"ny":28,"refTime":"2025-08-01T21:00:00:Z","depth":"2","parameterNumber":3,"parameterNumberName":"V-component_of_CURRENTS"},"data":[0,0,0,0,0,0,0,0,0,0,0,0,0,0,0,0,0,0,0,0,0,0,0,0,0,0,0,0,0,0,0,0,0,0,0,0,0,0,0,0,0,0,0,0,0,0,0,0,0,0,0,0,0,0,0,0,0,0,-0.0462,-0.046,0,-0.0344,-0.0342,-0.0341,-0.0262,-0.0261,-0.0261,-0.026,-0.0176,-0.0174,-0.0173,0,0,0,0,0,0,0,0,0,0,0,0,0,-0.0596,-0.0594,-0.0462,-0.046,-0.0459,-0.0344,-0.0342,-0.0341,-0.0262,-0.0261,-0.026,-0.026,-0.0176,-0.0175,-0.0173,0,0,0,0,0,0,0,0,0,0,0,0,0,-0.0515,-0.0593,-0.0462,-0.0404,-0.0398,-0.0344,-0.0342,-0.034,-0.0262,-0.0261,-0.026,-0.0259,-0.0177,-0.0175,-0.0172,-0.0178,0,0,-0.0165,-0.0164,0,0,0,0,0,0,0,0,-0.052,-0.0511,-0.0414,-0.0408,-0.0401,-0.0315,-0.0358,-0.0287,-0.0263,-0.0315,-0.026,-0.0259,-0.0225,-0.0219,-0.0201,-0.0174,-0.0171,-0.0165,-0.0163,-0.0162,-0.0162,0,0,0,0,0,0,0,-0.0526,-0.0515,-0.0417,-0.0413,-0.0404,-0.0376,-0.0364,-0.0344,-0.028,-0.0311,-0.0304,-0.0289,-0.0222,-0.0203,-0.0198,-0.017,-0.0165,-0.0163,-0.0161,-0.016,-0.0105,-0.0105,0,0,0,0,0,0,-0.0539,-0.052,-0.042,-0.0413,-0.0457,-0.0375,-0.0361,-0.0345,-0.0279,-0.0267,-0.029,-0.0286,-0.0208,-0.0201,-0.0195,-0.0155,-0.0162,-0.016,-0.0159,-0.0105,-0.0105,-0.0105,0,0,0,0,0,0,-0.0542,-0.0531,-0.0425,-0.0463,-0.0447,-0.0373,-0.0356,-0.0343,-0.0308,-0.0262,-0.0251,-0.0266,-0.0207,-0.0198,-0.0165,-0.0153,-0.0159,-0.0157,-0.0105,-0.0105,-0.0105,-0.0102,0,0,0,0,0,0,-0.0547,-0.0533,-0.0522,-0.0464,-0.0445,-0.0384,-0.0356,-0.0342,-0.03,-0.0293,-0.0239,-0.023,-0.0205,-0.0169,-0.0163,-0.0149,-0.0155,-0.0105,-0.0105,-0.0105,-0.0102,-0.0102,-0.0102,0,0,0,0,0,-0.0552,-0.0537,-0.0522,-0.0509,-0.0433,-0.0384,-0.0372,-0.0317,-0.03,-0.0283,-0.0248,-0.0231,-0.0164,-0.0167,-0.016,-0.0145,-0.0105,-0.0105,-0.0105,-0.0103,-0.0102,-0.0102,0,0,0,0,0,0,-0.0584,-0.0525,-0.0508,-0.0474,-0.0431,-0.0369,-0.0344,-0.0315,-0.0273,-0.0265,-0.0228,-0.0218,-0.0185,-0.0171,-0.0175,-0.0131,-0.0133,-0.0132,-0.0134,-0.0133,-0.0133,-0.0122,-0.0153,0,0,0,0,0,-0.0589,-0.0563,-0.0508,-0.0481,-0.046,-0.0405,-0.0376,-0.0342,-0.0299,-0.0277,-0.024,-0.0208,-0.0183,-0.0162,-0.0139,-0.0114,-0.0118,-0.0103,-0.0102,-0.0102,-0.009,-0.01,-0.01,-0.0105,-0.0105,-0.0105,0,0,-0.0595,-0.0559,-0.0544,-0.0486,-0.0448,-0.0408,-0.0385,-0.0339,-0.0302,-0.0278,-0.0221,-0.0206,-0.0178,-0.0146,-0.0131,-0.0129,-0.0106,-0.0102,-0.0102,-0.0089,-0.01,-0.01,-0.0099,-0.0104,-0.0105,-0.0105,0,0,-0.0587,-0.0562,-0.0533,-0.0498,-0.0439,-0.0407,-0.0395,-0.0332,-0.0298,-0.0254,-0.023,-0.0207,-0.016,-0.0136,-0.012,-0.0108,-0.0108,-0.0104,-0.0085,-0.0096,-0.0095,-0.0095,-0.0112,-0.0113,-0.0099,-0.0099,-0.0099,0,-0.0597,-0.0545,-0.0518,-0.0478,-0.0441,-0.0407,-0.0363,-0.0332,-0.0265,-0.0234,-0.0234,-0.0168,-0.0153,-0.0111,-0.0107,-0.0105,-0.0115,-0.0087,-0.0095,-0.0095,-0.0095,-0.0112,-0.0113,-0.0099,-0.0099,-0.0099,-0.0099,0,-0.0559,-0.0517,-0.0498,-0.0438,-0.0403,-0.0361,-0.0315,-0.0278,-0.0245,-0.0209,-0.0161,-0.0147,-0.0101,-0.0105,-0.0099,-0.0083,-0.0094,-0.0099,-0.0096,-0.0094,-0.0112,-0.0114,-0.0099,-0.0099,-0.0099,-0.0099,0,0,-0.0571,-0.0488,-0.0477,-0.043,-0.0373,-0.0331,-0.0286,-0.022,-0.0171,-0.0144,-0.0088,-0.0069,-0.0063,-0.0046,-0.0045,-0.0059,-0.0078,-0.0076,-0.0077,-0.0092,-0.0108,-0.0175,-0.0183,-0.0089,-0.0088,-0.0088,-0.0126,0,-0.054,-0.0457,-0.0427,-0.0346,-0.0293,-0.0256,-0.0207,-0.0153,-0.0116,-0.0062,-0.0059,-0.0013,-0.004,-0.0018,-0.0038,-0.006,-0.0079,-0.0067,-0.0107,-0.0108,-0.0167,-0.0186,-0.0184,-0.0223,-0.0128,-0.0128,-0.0128,0,-0.0499,-0.0443,-0.0358,-0.0265,-0.0239,-0.0191,-0.0097,-0.0051,0.0005,0.0031,0.0055,0.0059,0.006,0.0025,-0.0019,-0.0011,-0.0055,-0.009,-0.0092,-0.0151,-0.0177,-0.0207,-0.0229,-0.013,-0.013,-0.013,-0.013,0,-0.0481,-0.0389,-0.0313,-0.0282,-0.0185,-0.0131,-0.0078,-0.0009,0.0042,0.0094,0.012,0.012,0.0124,0.0069,-0.0004,-0.0007,-0.0072,-0.0084,-0.0187,-0.0192,-0.0196,-0.0203,-0.0123,-0.0123,-0.0123,-0.0123,-0.0123,0,-0.0445,-0.0379,-0.029,-0.024,-0.0137,-0.0088,0.0016,0.0065,0.0124,0.0174,0.0173,0.0185,0.0132,0.0087,0.0014,-0.0096,-0.0058,-0.0187,-0.0208,-0.0198,-0.0204,-0.0122,-0.0121,-0.0125,-0.0124,-0.0124,-0.0124,0,-0.0421,-0.0371,-0.0267,-0.0156,-0.0116,-0.0035,0.0077,0.0139,0.0185,0.0241,0.0255,0.0239,0.0168,0.0098,0.0006,-0.0075,-0.0167,-0.0215,-0.0207,-0.0228,-0.0284,-0.0282,-0.0332,-0.0335,-0.0337,-0.0339,-0.0341,0,-0.0396,-0.034,-0.0205,-0.0138,-0.0076,0.0037,0.0109,0.0175,0.0219,0.0259,0.027,0.0231,0.0165,0.0005,-0.0115,-0.025,-0.023,-0.0335,-0.0351,-0.029,-0.0306,-0.0301,-0.0296,-0.0353,-0.0354,-0.0355,-0.0356,0,-0.0337,-0.0288,-0.0203,-0.0074,0.002,0.0108,0.0201,0.023,0.0282,0.0296,0.0276,0.0223,0.0078,-0.0076,-0.0246,-0.0333,-0.0314,-0.037,-0.0295,-0.0312,-0.0317,-0.0329,-0.0323,-0.0368,-0.0367,-0.0366,-0.0365,-0.0365,-0.0284,-0.0221,-0.0112,0.0008,0.0104,0.0169,0.0219,0.0258,0.0286,0.029,0.0244,0.0179,0.003,-0.0211,-0.034,-0.0431,-0.0444,-0.0475,-0.0467,-0.0459,-0.0467,-0.0477,-0.0559,-0.0559,-0.0559,-0.0559,-0.0559,0,-0.0207,-0.014,-0.0036,0.009,0.0173,0.0227,0.0276,0.028,0.0275,0.0271,0.0228,0.0086,-0.0102,-0.0213,-0.0381,-0.0529,-0.0497,-0.0543,-0.0466,-0.0457,-0.0448,-0.0451,-0.0541,-0.054,-0.054,-0.054,0,0,-0.016,-0.0058,-0.0017,0.0127,0.0217,0.0295,0.0316,0.0287,0.0272,0.0232,0.022,0.0117,-0.0059,-0.0171,-0.0355,-0.043,-0.0402,-0.0444,-0.0457,-0.0339,-0.0328,-0.0422,-0.042,0,0,0,0,0]}],[{"header":{"parameterUnit":"m.s-1","parameterCategory":2,"la1":30.2991,"la2":30.254,"lo1":-89.0895,"lo2":-89.0444,"dy":0.0017,"dx":0.0017,"nx":28,"ny":28,"refTime":"2025-08-01T21:00:00:Z","depth":"4","parameterNumber":2,"parameterNumberName":"U-component_of_CURRENTS"},"data":[0,0,0,0,0,0,0,0,0,0,0,0,0,0,0,0,0,0,0,0,0,0,0,0,0,0,0,0,0,0,0,0,0,0,0,0,0,0,0,0,0,0,0,0,0,0,0,0,0,0,0,0,0,0,0,0,0,0,0.0211,0.0211,0,0.0209,0.0209,0.0209,0.0222,0.0222,0.0223,0.0223,0.0237,0.0237,0.0237,0,0,0,0,0,0,0,0,0,0,0,0,0,0.0236,0.0236,0.0211,0.0211,0.0211,0.0209,0.0209,0.0209,0.0222,0.0222,0.0223,0.0223,0.0237,0.0237,0.0237,0,0,0,0,0,0,0,0,0,0,0,0,0,0.0229,0.0235,0.0211,0.0217,0.0217,0.0209,0.0209,0.0209,0.0222,0.0222,0.0223,0.0223,0.0237,0.0237,0.0237,0.0229,0,0,0.0237,0.0237,0,0,0,0,0,0,0,0,0.023,0.0229,0.0216,0.0216,0.0217,0.0215,0.0223,0.0216,0.0222,0.0221,0.0223,0.0223,0.023,0.0231,0.023,0.023,0.023,0.0237,0.0237,0.0238,0.0238,0,0,0,0,0,0,0,0.023,0.0229,0.0211,0.0216,0.0216,0.0222,0.0222,0.0221,0.0224,0.0221,0.0222,0.022,0.0231,0.023,0.0231,0.023,0.0237,0.0237,0.0238,0.0238,0.0231,0.023,0,0,0,0,0,0,0.0228,0.0229,0.0211,0.0211,0.0223,0.0221,0.0221,0.0216,0.0224,0.0225,0.022,0.0221,0.023,0.0231,0.0231,0.0237,0.0238,0.0238,0.0238,0.0231,0.0231,0.023,0,0,0,0,0,0,0.0228,0.0226,0.0211,0.022,0.0218,0.022,0.0215,0.0216,0.0225,0.0222,0.0224,0.0229,0.023,0.0231,0.0235,0.0238,0.0238,0.0238,0.0231,0.0231,0.023,0.024,0,0,0,0,0,0,0.0229,0.0226,0.0231,0.0219,0.0217,0.0213,0.0214,0.0215,0.0222,0.0224,0.0231,0.0232,0.0231,0.0235,0.0235,0.0238,0.0238,0.0232,0.0231,0.0231,0.024,0.024,0.024,0,0,0,0,0,0.023,0.0231,0.0231,0.023,0.0221,0.0213,0.0214,0.0217,0.0223,0.0228,0.0229,0.0232,0.0232,0.0235,0.0235,0.0238,0.0232,0.0231,0.0231,0.024,0.024,0.024,0,0,0,0,0,0,0.0246,0.0232,0.0232,0.023,0.0226,0.0216,0.0224,0.0222,0.0227,0.0235,0.0231,0.0232,0.0232,0.0233,0.0236,0.0233,0.0231,0.0231,0.0238,0.0238,0.0238,0.0253,0.0238,0,0,0,0,0,0.025,0.025,0.0236,0.0238,0.0237,0.0233,0.0234,0.0234,0.0232,0.0235,0.0237,0.0236,0.0227,0.0233,0.0226,0.0231,0.0237,0.0231,0.0231,0.0231,0.0242,0.024,0.0241,0.0228,0.0228,0.0228,0,0,0.0257,0.0251,0.0251,0.0242,0.0243,0.0239,0.0236,0.024,0.0239,0.0236,0.0243,0.0235,0.0226,0.0225,0.0226,0.023,0.0239,0.023,0.023,0.0242,0.0239,0.024,0.0242,0.0228,0.0228,0.0228,0,0,0.0264,0.0266,0.0266,0.0264,0.0263,0.0257,0.0259,0.0253,0.0256,0.0256,0.0247,0.0243,0.024,0.0231,0.0225,0.0222,0.0233,0.0221,0.0241,0.0238,0.0239,0.0241,0.0258,0.0261,0.0227,0.0227,0.0227,0,0.0272,0.027,0.0266,0.0266,0.0268,0.0264,0.0265,0.0262,0.0259,0.0263,0.0262,0.0251,0.0241,0.0234,0.0232,0.0223,0.0233,0.0243,0.0239,0.024,0.0242,0.0259,0.0262,0.0228,0.0228,0.0228,0.0228,0,0.0273,0.0279,0.0282,0.0278,0.0279,0.0284,0.0275,0.0281,0.0283,0.028,0.028,0.0264,0.0263,0.025,0.0242,0.0243,0.0251,0.0234,0.0243,0.0244,0.0262,0.0265,0.0228,0.0228,0.0228,0.0228,0,0,0.0259,0.0279,0.0278,0.0289,0.029,0.0289,0.0293,0.0293,0.0304,0.0298,0.0308,0.0285,0.0288,0.0282,0.0267,0.0264,0.0275,0.026,0.026,0.0284,0.0291,0.0319,0.0325,0.0261,0.0262,0.0262,0.0303,0,0.0259,0.0271,0.0277,0.029,0.0297,0.0303,0.0307,0.031,0.0315,0.0324,0.0311,0.0315,0.0296,0.0302,0.0293,0.0275,0.0283,0.0267,0.0281,0.0282,0.0311,0.0328,0.0263,0.0306,0.0306,0.0307,0.0307,0,0.0246,0.0261,0.0279,0.0308,0.0311,0.032,0.0339,0.0343,0.0352,0.0359,0.0365,0.0359,0.0356,0.0337,0.0327,0.0322,0.0316,0.0302,0.0303,0.0331,0.0315,0.0301,0.0312,0.0312,0.0312,0.0311,0.0311,0,0.0233,0.0258,0.0279,0.0286,0.0314,0.0331,0.0346,0.0359,0.0369,0.0392,0.0405,0.04,0.0405,0.0389,0.0372,0.0354,0.0366,0.0332,0.0356,0.0358,0.0316,0.0314,0.0336,0.0335,0.0335,0.0335,0.0335,0,0.0223,0.0237,0.0282,0.0292,0.0321,0.0341,0.0369,0.0385,0.0407,0.0423,0.0431,0.0441,0.0418,0.042,0.0396,0.04,0.039,0.0375,0.0373,0.0319,0.0317,0.0319,0.0316,0.0337,0.0336,0.0336,0.0336,0,0.02,0.0228,0.0254,0.03,0.0316,0.0339,0.0383,0.0398,0.043,0.0452,0.0464,0.0478,0.0493,0.048,0.0463,0.0441,0.0432,0.0436,0.0411,0.0404,0.042,0.0417,0.0463,0.0465,0.0466,0.0467,0.0468,0,0.0191,0.0204,0.0257,0.0278,0.0304,0.0343,0.0364,0.0403,0.0423,0.0468,0.0476,0.0512,0.0519,0.0526,0.0509,0.0502,0.0486,0.0489,0.0428,0.0441,0.0434,0.0429,0.0425,0.047,0.047,0.047,0.0471,0,0.0174,0.0195,0.0221,0.0268,0.0301,0.0332,0.0374,0.0389,0.0434,0.0458,0.0494,0.0512,0.054,0.0536,0.0554,0.0531,0.0486,0.05,0.0496,0.0439,0.0449,0.044,0.0434,0.0475,0.0474,0.0474,0.0473,0,0.016,0.0176,0.0217,0.0257,0.0294,0.0325,0.0347,0.0387,0.0413,0.0469,0.0479,0.0516,0.0539,0.0553,0.0555,0.056,0.0536,0.0503,0.0499,0.0494,0.0484,0.0499,0.0553,0,0,0,0,0,0.0147,0.017,0.0205,0.0253,0.0288,0.0313,0.0354,0.0375,0.0417,0.0441,0.0465,0.0493,0.0524,0.0538,0.0547,0.0559,0.053,0.0567,0.0488,0.0497,0.0492,0.0477,0,0,0,0,0,0,0.014,0.0172,0.0199,0.0243,0.0272,0.0311,0.0337,0.0364,0.0385,0.0426,0.0444,0.0476,0.0506,0.0515,0.0539,0.0545,0.049,0.0591,0.059,0.05,0.0495,0.0492,0.0474,0,0,0,0,0]},{"header":{"parameterUnit":"m.s-1","parameterCategory":2,"la1":30.2991,"la2":30.254,"lo1":-89.0895,"lo2":-89.0444,"dy":0.0017,"dx":0.0017,"nx":28,"ny":28,"refTime":"2025-08-01T21:00:00:Z","depth":"4","parameterNumber":3,"parameterNumberName":"V-component_of_CURRENTS"},"data":[0,0,0,0,0,0,0,0,0,0,0,0,0,0,0,0,0,0,0,0,0,0,0,0,0,0,0,0,0,0,0,0,0,0,0,0,0,0,0,0,0,0,0,0,0,0,0,0,0,0,0,0,0,0,0,0,0,0,-0.0184,-0.0184,0,-0.0212,-0.0212,-0.0212,-0.0241,-0.0242,-0.0242,-0.0243,-0.029,-0.0291,-0.0292,0,0,0,0,0,0,0,0,0,0,0,0,0,-0.016,-0.016,-0.0183,-0.0184,-0.0184,-0.0212,-0.0212,-0.0213,-0.0241,-0.0242,-0.0242,-0.0243,-0.029,-0.0291,-0.0292,0,0,0,0,0,0,0,0,0,0,0,0,0,-0.0177,-0.016,-0.0183,-0.0202,-0.0204,-0.0212,-0.0212,-0.0213,-0.0241,-0.0242,-0.0242,-0.0243,-0.029,-0.0291,-0.0292,-0.0289,0,0,-0.0296,-0.0297,0,0,0,0,0,0,0,0,-0.0176,-0.0178,-0.0199,-0.0201,-0.0203,-0.0224,-0.0221,-0.0239,-0.0241,-0.0227,-0.0243,-0.0243,-0.027,-0.0273,-0.0276,-0.0291,-0.0293,-0.0297,-0.0297,-0.0298,-0.0298,0,0,0,0,0,0,0,-0.0175,-0.0177,-0.0195,-0.0199,-0.0202,-0.0211,-0.0214,-0.0225,-0.0245,-0.0228,-0.023,-0.0234,-0.0271,-0.0275,-0.0277,-0.0294,-0.0297,-0.0298,-0.0299,-0.0299,-0.039,-0.0392,0,0,0,0,0,0,-0.017,-0.0176,-0.0194,-0.0195,-0.0191,-0.0211,-0.0214,-0.0216,-0.0244,-0.0249,-0.0233,-0.0235,-0.0272,-0.0276,-0.0279,-0.0337,-0.0298,-0.0299,-0.03,-0.0388,-0.039,-0.0392,0,0,0,0,0,0,-0.017,-0.0172,-0.0193,-0.0186,-0.019,-0.021,-0.0213,-0.0217,-0.0237,-0.0248,-0.0253,-0.0251,-0.0273,-0.0277,-0.0315,-0.0337,-0.03,-0.0301,-0.0387,-0.0389,-0.0391,-0.0415,0,0,0,0,0,0,-0.0169,-0.0171,-0.0177,-0.0186,-0.019,-0.0209,-0.0212,-0.0217,-0.0237,-0.024,-0.0265,-0.0269,-0.0274,-0.0313,-0.0316,-0.0338,-0.0302,-0.0384,-0.0388,-0.039,-0.0412,-0.0418,-0.0422,0,0,0,0,0,-0.0168,-0.0172,-0.0177,-0.018,-0.0196,-0.0209,-0.0213,-0.0229,-0.0237,-0.0249,-0.0275,-0.0269,-0.0335,-0.0315,-0.0319,-0.0342,-0.0383,-0.0387,-0.039,-0.0409,-0.0416,-0.0422,0,0,0,0,0,0,-0.0166,-0.0176,-0.0182,-0.0189,-0.0204,-0.0215,-0.0228,-0.0237,-0.0264,-0.0275,-0.0285,-0.0291,-0.0336,-0.0337,-0.0316,-0.038,-0.036,-0.0364,-0.0373,-0.038,-0.0385,-0.0368,-0.0303,0,0,0,0,0,-0.0167,-0.0176,-0.0185,-0.0196,-0.0203,-0.0218,-0.0228,-0.024,-0.0261,-0.0275,-0.0296,-0.0323,-0.035,-0.0364,-0.0389,-0.0415,-0.0407,-0.0436,-0.0441,-0.0445,-0.0437,-0.0448,-0.0453,-0.0404,-0.0404,-0.0404,0,0,-0.0169,-0.0177,-0.0183,-0.0197,-0.021,-0.0218,-0.0226,-0.0248,-0.0263,-0.0275,-0.0315,-0.0345,-0.0364,-0.0404,-0.0423,-0.0408,-0.0459,-0.045,-0.0453,-0.0442,-0.0453,-0.0457,-0.0461,-0.0406,-0.0406,-0.0406,0,0,-0.0172,-0.0187,-0.0192,-0.0203,-0.0224,-0.0234,-0.0242,-0.0267,-0.0289,-0.0325,-0.0346,-0.0387,-0.0425,-0.0444,-0.0456,-0.0503,-0.0491,-0.0521,-0.0527,-0.0539,-0.0542,-0.0545,-0.0547,-0.0549,-0.0518,-0.0518,-0.0518,0,-0.0177,-0.0182,-0.0197,-0.0202,-0.0213,-0.024,-0.0247,-0.0269,-0.0308,-0.0328,-0.0344,-0.0418,-0.0439,-0.0475,-0.05,-0.0512,-0.0515,-0.0497,-0.0543,-0.0546,-0.0548,-0.0549,-0.0552,-0.052,-0.0519,-0.0519,-0.0519,0,-0.0174,-0.0185,-0.0192,-0.0206,-0.0219,-0.0237,-0.0261,-0.0292,-0.0326,-0.0348,-0.0408,-0.0446,-0.0484,-0.0509,-0.0519,-0.0556,-0.0551,-0.0551,-0.0519,-0.0554,-0.0554,-0.0556,-0.0522,-0.0521,-0.0521,-0.052,0,0,-0.0179,-0.0187,-0.0193,-0.0199,-0.0226,-0.0238,-0.0268,-0.03,-0.0324,-0.0378,-0.0409,-0.0474,-0.0501,-0.0517,-0.0545,-0.0561,-0.059,-0.0566,-0.0566,-0.0554,-0.0614,-0.0587,-0.0586,-0.06,-0.0601,-0.0601,-0.0608,0,-0.0179,-0.018,-0.0188,-0.0205,-0.0212,-0.0242,-0.0265,-0.03,-0.0342,-0.0383,-0.043,-0.0475,-0.0501,-0.0531,-0.0553,-0.0583,-0.0597,-0.0588,-0.0594,-0.0593,-0.0554,-0.0588,-0.0603,-0.0609,-0.061,-0.061,-0.061,0,-0.018,-0.0181,-0.0185,-0.0206,-0.0213,-0.0229,-0.0275,-0.0299,-0.0352,-0.0386,-0.0434,-0.0471,-0.0516,-0.0532,-0.0581,-0.0576,-0.0597,-0.0614,-0.0615,-0.0578,-0.057,-0.0568,-0.0614,-0.0613,-0.0613,-0.0613,-0.0613,0,-0.0178,-0.0188,-0.0192,-0.0198,-0.0219,-0.0239,-0.026,-0.0307,-0.0329,-0.039,-0.0411,-0.0469,-0.0499,-0.0536,-0.058,-0.0585,-0.0621,-0.0626,-0.0617,-0.0615,-0.0624,-0.062,-0.0653,-0.0653,-0.0653,-0.0653,-0.0653,0,-0.0179,-0.0189,-0.0194,-0.0199,-0.0218,-0.0236,-0.0267,-0.0299,-0.0336,-0.0356,-0.0413,-0.0436,-0.0503,-0.0534,-0.0573,-0.0598,-0.0613,-0.0618,-0.0617,-0.0636,-0.0634,-0.0625,-0.0622,-0.0653,-0.0653,-0.0653,-0.0653,0,-0.0182,-0.0182,-0.0191,-0.0209,-0.0217,-0.0235,-0.0261,-0.0279,-0.0316,-0.0341,-0.0357,-0.0411,-0.0453,-0.0506,-0.0562,-0.0579,-0.0611,-0.0615,-0.0624,-0.0624,-0.0598,-0.0597,-0.0604,-0.0603,-0.0603,-0.0602,-0.0602,0,-0.0181,-0.0184,-0.0196,-0.02,-0.0212,-0.0233,-0.0246,-0.0276,-0.0287,-0.0321,-0.0327,-0.0372,-0.0411,-0.0455,-0.0522,-0.0581,-0.0589,-0.0599,-0.061,-0.0596,-0.0595,-0.0594,-0.0593,-0.06,-0.06,-0.06,-0.06,0,-0.0184,-0.0191,-0.0194,-0.0199,-0.0211,-0.0218,-0.0235,-0.0234,-0.0261,-0.0284,-0.0291,-0.0329,-0.0369,-0.043,-0.0477,-0.0523,-0.0592,-0.0592,-0.0594,-0.0605,-0.0592,-0.0591,-0.0591,-0.0597,-0.0598,-0.0598,-0.0598,0,-0.019,-0.0192,-0.0193,-0.0199,-0.0204,-0.0203,-0.0213,-0.0214,-0.0222,-0.0247,-0.0246,-0.0301,-0.0338,-0.0399,-0.0445,-0.0486,-0.0499,-0.0505,-0.0512,-0.0516,-0.0493,-0.0464,-0.0428,0,0,0,0,0,-0.0195,-0.0191,-0.0191,-0.0191,-0.0192,-0.0197,-0.0203,-0.0209,-0.0221,-0.0212,-0.0225,-0.0261,-0.0324,-0.0361,-0.0395,-0.0446,-0.052,-0.0488,-0.0533,-0.0583,-0.0586,-0.0573,0,0,0,0,0,0,-0.0197,-0.0196,-0.0188,-0.018,-0.0178,-0.0179,-0.0182,-0.019,-0.0185,-0.0198,-0.023,-0.0253,-0.0321,-0.0297,-0.0389,-0.0406,-0.0435,-0.0526,-0.0526,-0.0582,-0.0584,-0.0587,-0.0574,0,0,0,0,0]}]]